Flag for U.S.A. Weather past 2 weeks in Chinle, Arizona, U.S.A.

Now
72 °F

Sunny.


Feels Like: 76 °F
Forecast: 44 / 77 °F
Wind: 10 mph from Southwest

Location: Window Rock Airport

Current Time: Oct 25, 2014 at 12:29:24 PM

Latest Report: Oct 25, 2014 at 11:53 AM


Visibility: 10 mi

Pressure: 30.12 "Hg

Humidity: 28%

Dew point: 37 °F

Location of ChinleLocation

Historic Weather in Chinle — Graph

°F

Chinle temperature yesterday

Maximum temperature yesterday: 77 °F (at 2:53 PM)
Minimum temperature yesterday: 31 °F (at 7:53 AM)
Average temperature yesterday: 53 °F

Past Weeks' High & Low Weather Summary

 TemperatureHumidityPressure
High77 °F (Oct 24, 2:53 PM)90% (Oct 11, 6:53 AM)30.32 "Hg (Oct 11, 6:53 AM)
Low26 °F (Oct 13, 6:53 AM)10% (Oct 16, 2:53 PM)29.63 "Hg (Oct 12, 1:53 PM)
Average52 °F48%30.03 "Hg
* Reported Oct 10 10:53 AM — Oct 25 10:53 AM, Chinle, Weather by CustomWeather, © 2014

Note: Actual official high and low records may vary slightly from our data, if they occured in-between our weather recording intervals... More about our weather records

Advertising

Chinle weather history for previous 24 hours

 ConditionsComfort  
Time TempWeatherWind HumidityBarometerVisibility
10:53 AM
Oct 25
65 °FSunny.No wind31%30.14 "Hg10 mi
9:53 AM52 °FSunny.No wind40%30.21 "Hg10 mi
8:53 AM42 °FSunny.No wind55%30.22 "Hg10 mi
7:53 AM33 °FSunny.No wind70%30.21 "Hg10 mi
6:53 AM34 °FClear.No wind70%30.18 "Hg10 mi
5:53 AM34 °FClear.No wind67%30.14 "Hg10 mi
4:53 AM37 °FClear.No wind62%30.11 "Hg10 mi
3:53 AM35 °FClear.No wind64%30.12 "Hg10 mi
2:53 AM36 °FClear.No wind64%30.13 "Hg10 mi
1:53 AM37 °FClear.5 mph62%30.13 "Hg10 mi
12:53 AM41 °FClear.No wind53%30.12 "Hg10 mi
11:53 PM
Oct 24
42 °FClear.No wind55%30.14 "Hg10 mi
10:53 PM46 °FClear.No wind46%30.14 "Hg10 mi
9:53 PM48 °FClear.No wind48%30.17 "Hg10 mi
8:53 PM54 °FClear.No wind37%30.19 "Hg10 mi
7:53 PM62 °FClear.No wind25%30.18 "Hg10 mi
6:53 PM66 °FClear.5 mph23%30.13 "Hg10 mi
5:53 PM73 °FSunny.8 mph18%30.09 "Hg10 mi
4:53 PM77 °FSunny.6 mph16%30.08 "Hg10 mi
3:53 PM77 °FSunny.6 mph14%30.08 "Hg10 mi
2:53 PM77 °FSunny.3 mph14%30.07 "Hg10 mi
1:53 PM76 °FSunny.10 mph14%30.09 "Hg10 mi
12:53 PM74 °FSunny.No wind19%30.13 "Hg10 mi
Weather by CustomWeather, © 2014

See weather overviewHow to use our weather pages